sat.trackr.live / text

‹ back to catalog

TIANQI-31

NORAD 61197 · 2024-170C

PAYLOAD ACTIVE UNKNOWN

§ Identity

Operator
Country
PRC
Launch date
2024-09-20
Launch site
XICLF
Launch vehicle
Mass (kg)
RCS (m²)

External: N2YO · Heavens-Above · Gunter

§ Orbital elements

Epoch: 2026-05-25T03:56:19.593024Z

Period
102.92 min
Inclination
44.8618°
Eccentricity
0.0007732
Mean motion
13.99131260 rev/d
Perigee alt
891.2 km
Apogee alt
902.4 km
Semi-major
7,274.9 km
B*
1.3125e-4
RAAN
240.0108°
Arg perigee
319.0511°
Mean anomaly
40.9738°
Rev number
8,572

§ Raw data

TIANQI-311 61197U 24170C   26145.16411566  .00000064  00000+0  13125-3 0  99902 61197  44.8618 240.0108 0007732 319.0511  40.9738 13.99131260 85729

JSON: /api/v1/satellites/61197 · /tle

For live sub-satellite position, see the globe view (requires WebGL).

§ Visibility from observer

Set your observer location to see the next 7 days of passes ≥ 10°. The values pass through the URL so the page stays shareable.

No JS? Fill the form by hand. The geolocation button needs JavaScript.